This is the latest recevied weather packets stored in our database for station/object KG5APU. If no packets are shown the sender has not sent any weather packets the latest 10 day(s).
| Time | Temp. | Humidity | Pressure | Rain* | Wind** | Luminosity | Snow |
|---|---|---|---|---|---|---|---|
| 1788132359 | 37.22° C | 37% | 1013.7 hPa | 0 mm | - | 138 W/m² | - |
| 1788131757 | 37.22° C | 36% | 1013.7 hPa | 0 mm | - | 166 W/m² | - |
| 1788131151 | 37.22° C | 36% | 1013.8 hPa | 0 mm | - | 194 W/m² | - |
| 1788130547 | 37.78° C | 35% | 1013.6 hPa | 0 mm | - | 225 W/m² | - |
| 1788129945 | 37.78° C | 34% | 1013.7 hPa | 0 mm | - | 273 W/m² | - |
| 1788129345 | 37.78° C | 35% | 1013.9 hPa | 0 mm | - | 300 W/m² | - |
| 1788128745 | 37.78° C | 35% | 1013.8 hPa | 0 mm | - | 331 W/m² | - |
| 1788128143 | 37.78° C | 35% | 1013.8 hPa | 0 mm | - | 312 W/m² | - |
| 1788127538 | 38.33° C | 34% | 1014 hPa | 0 mm | - | 394 W/m² | - |
| 1788126937 | 38.33° C | 34% | 1013.8 hPa | 0 mm | - | 415 W/m² | - |
| 1788126333 | 38.33° C | 34% | 1013.9 hPa | 0 mm | - | 441 W/m² | - |
| 1788125733 | 37.78° C | 35% | 1014.1 hPa | 0 mm | - | 490 W/m² | - |
| 1788125130 | 37.78° C | 35% | 1014.2 hPa | 0 mm | - | 522 W/m² | - |
| 1788124526 | 38.33° C | 34% | 1014.2 hPa | 0 mm | - | 548 W/m² | - |
| 1788123927 | 37.78° C | 34% | 1014.3 hPa | 0 mm | - | 576 W/m² | - |
| 1788123324 | 38.33° C | 35% | 1014.4 hPa | 0 mm | - | 603 W/m² | - |
| 1788122718 | 37.78° C | 36% | 1014.5 hPa | 0 mm | - | 624 W/m² | - |
| 1788122114 | 37.78° C | 35% | 1014.7 hPa | 0 mm | - | 651 W/m² | - |
| 1788121509 | 37.22° C | 37% | 1015 hPa | 0 mm | - | 668 W/m² | - |
| 1788120913 | 37.78° C | 36% | 1015.1 hPa | 0 mm | - | 693 W/m² | - |
| 1788120300 | 37.78° C | 38% | 1015.1 hPa | 0 mm | - | 711 W/m² | - |
| 1788119695 | 37.22° C | 37% | 1015.6 hPa | 0 mm | - | 725 W/m² | - |
| 1788119092 | 37.78° C | 36% | 1015.5 hPa | 0 mm | - | 736 W/m² | - |
| 1788118492 | 37.22° C | 39% | 1015.7 hPa | 0 mm | - | 743 W/m² | - |
| 1788117889 | 37.78° C | 38% | 1015.7 hPa | 0 mm | - | 757 W/m² | - |
* Rain latest hour (hover to see other rain measurements)
** Current wind speed in m/s (hover to see current wind gust speed)